Location: Newark
(7.0858°N, 171.3717°E)
Time: 12:09:45
(UTC+00:00)

Vanguard 1 Rocket - Pass Details

Date: 26 November 2020
Orbit: 655 x 4222 km, 34.3° (Epoch: 23 January)

Event Time Altitude Azimuth Distance (km) Brightness Sun altitude
Exits shadow 18:02:40 - 307° (NW) 7,101 11.3 -7.0°
Reaches altitude 10° 18:07:09 10° 315° (NW) 6,208 11.1 -6.0°
Maximum altitude 18:19:04 21° 357° (N) 4,146 10.5 -3.2°
Drops below altitude 10° 18:26:59 10° 42° (NE) 3,992 11.0 -1.4°
Sets 18:30:42 0° 60° (ENE) 4,491 11.6 -0.5°
